Regional Weather Roundup
Issued by NWS

Home | Current Version | Previous Version | Graphics & Text | Print | Product List | Glossary Off
Versions: 1 2 3 4 5 6 7 8 9 10 11 12 13 14 15 16 17 18 19 20 21 22 23 24 25 26 27 28 29 30 31 32 33 34 35 36 37 38 39 40 41 42 43 44 45 46 47 48 49 50

000
ASUS43 KMKX 270800
RWRWI

WISCONSIN REGIONAL WEATHER ROUNDUP
NATIONAL WEATHER SERVICE MILWAUKEE/SULLIVAN WI
300 AM CDT SAT AUG 27 2016

NOTE: "FAIR" INDICATES FEW OR NO CLOUDS BELOW 12,000 FEET WITH NO
SIGNIFICANT WEATHER AND/OR OBSTRUCTIONS TO VISIBILITY.

WIZ001-002-006>008-014>016-023>028-270900-
NORTHWEST WISCONSIN

CITY           SKY/WX    TMP DP  RH WIND       PRES   REMARKS
SUPERIOR ARPT  PTCLDY    50  50 100 S3        30.10S FOG
ASHLAND        CLOUDY    51  50  96 CALM      30.13F
HAYWARD        CLOUDY    54  52  93 CALM      30.13F
SIREN          MOCLDY    58  56  94 CALM      30.11F
CUMBERLAND     CLOUDY    57  55  94 CALM      30.13S
RICE LAKE      CLOUDY    58  56  94 CALM      30.15R
CHETEK         NOT AVBL
LADYSMITH      CLOUDY    58  55  92 CALM      30.16S
EAU CLAIRE     NOT AVBL
MENOMONIE      CLOUDY    61  58  91 CALM      30.12S
NEW RICHMOND   CLOUDY    60  58  93 CALM      30.12S
OSCEOLA        CLOUDY    60  60 100 SE3       30.14S
$$

WIZ003>005-009-010-017-018-270900-
NORTH CENTRAL WISCONSIN

CITY           SKY/WX    TMP DP  RH WIND       PRES   REMARKS
MANITOWISH WTR NOT AVBL
ARBOR VITAE    CLOUDY    57  55  92 CALM      30.16S
WOODRUFF       CLOUDY    57  55  92 CALM      30.16S
RHINELANDER    CLOUDY    57  55  93 CALM      30.17R
EAGLE RIVER    CLOUDY    52  52 100 CALM      30.16S
LAND O LAKES   CLOUDY    49  49 100 CALM      30.17S
PHILLIPS       MOCLDY    54  53  97 CALM      30.15S
TOMAHAWK       CLOUDY    53  52  96 CALM      30.16S
MEDFORD        LGT RAIN  56  56 100 CALM      30.14S
MERRILL        LGT RAIN  57  57 100 CALM      30.15S
$$

WIZ029-030-035-036-043>047-270900-
CENTRAL WISCONSIN

CITY           SKY/WX    TMP DP  RH WIND       PRES   REMARKS
WAUSAU         LGT RAIN  59  59 100 E5        30.13F
MOSINEE        LGT RAIN  59  59 100 CALM      30.16S
MARSHFIELD     LGT RAIN  60  57  89 CALM      30.14S
STEVENS POINT  LGT RAIN  58  58  99 CALM      30.15F
WAUPACA        CLOUDY    63  62  97 N5        30.14S
WAUTOMA        CLOUDY    61  59  93 CALM      30.14
WISC RAPIDS    LGT RAIN  60  60 100 CALM      30.15F
CAMP DOUGLAS   CLOUDY    61  61 100 CALM      30.13S
$$

WIZ011>013-019>022-031-037>040-048>050-270900-
NORTHEAST WISCONSIN

CITY           SKY/WX    TMP DP  RH WIND       PRES   REMARKS
ANTIGO         RAIN      57  55  92 CALM      30.16F
SHAWANO        RAIN      63  60  91 CALM      30.14F
OCONTO         NOT AVBL
STURGEON BAY   LGT RAIN  63  60  90 CALM      30.14F
GREEN BAY      CLOUDY    62  62 100 CALM      30.14R
MANITOWOC      NOT AVBL
APPLETON       CLOUDY    63  54  72 NE5       30.12S
CLINTONVILLE   LGT RAIN  61  59  94 N3        30.13F
OSHKOSH        CLOUDY    65  60  84 NW3       30.13R
$$

WIZ032>034-041-042-053>061-270900-
SOUTHWEST WISCONSIN

CITY           SKY/WX    TMP DP  RH WIND       PRES   REMARKS
LA CROSSE      CLOUDY    64  61  90 SE3       30.10F
SPARTA         LGT RAIN  60  60 100 E3        30.12F
VIROQUA        CLOUDY    59  59 100 NE5       30.11F
BOSCOBEL       HVY RAIN  63  62  97 NE5       30.10F FOG
PRAIRIE DU CHI HVY RAIN  62  58  89 NE7       30.09S
PLATTEVILLE    CLOUDY    64  64 100 NE6       30.09F
$$

WIZ056-057-062-063-064-067-068-270900-
SOUTH CENTRAL WISCONSIN

CITY           SKY/WX    TMP DP  RH WIND       PRES   REMARKS
REEDSBURG      NOT AVBL
BARABOO/DELLS  RAIN      63  60  91 CALM      30.14R
LONE ROCK      NOT AVBL
MINERAL POINT  LGT RAIN  63  63 100 N8        30.11S
MADISON        LGT RAIN  65  60  84 SE7       30.13R
MIDDLETON      CLOUDY    67  61  83 NE5       30.11S
WATERTOWN      RAIN      62  62 100 E5        30.11F
MONROE         HVY RAIN  63  61  94 E7        30.08F
JANESVILLE     RAIN      63  63 100 E8        30.09F
$$

WIZ051-052-058>065-066-070>072-270900-
SOUTHEAST WISCONSIN

CITY           SKY/WX    TMP DP  RH WIND       PRES   REMARKS
MILWAUKEE      TSTM      68  62  81 NE6       30.10F
WAUKESHA       LGT RAIN  61  59  94 N5        30.13F
MILWAUKEE/TIMM LGT RAIN  64  59  82 N3        30.13R
RACINE         CLOUDY    69  61  75 E9        30.12F
BURLINGTON     LGT RAIN  64  60  84 E6        30.10F
KENOSHA        CLOUDY    68  63  84 E5        30.11S
FOND DU LAC    CLOUDY    66  59  78 CALM      30.13R
SHEBOYGAN      CLOUDY    62  59  90 CALM      30.12F
WEST BEND      LGT RAIN  63  59  88 S3        30.14R
JUNEAU         CLOUDY    64  60  87 NE3       30.13S
$$

LSZ147-162-270900-
LAKE SUPERIOR

STATION/POSITION TIME  TEMP    WIND        PRES    WAVE
                       AIR SEA DIR/SP/G            HT/PER
                 (UTC) (F)     (DEG/KT/KT) (MB)    (FT/S)
W MID LAKE BUOY  0650   66 67  160/ 10/ 12 1019.8F   1
DEVILS ISLAND    0700   64     180/  5/  6 1020.0F
PORT WING        0700   60     130/  3/  5 1020.0
SAXON HARBOR     0700   58     200/  5/  7 1020.0F
$$

LMZ867-665-643>646-270900-
LAKE MICHIGAN

STATION/POSITION TIME  TEMP    WIND        PRES    WAVE
                       AIR SEA DIR/SP/G            HT/PER
                 (UTC) (F)     (DEG/KT/KT) (MB)    (FT/S)
CHAMBERS ISLAND  0700   68      20/  2/  6 1020.7F
S GREEN BAY BUOY 0530   68 72  300/  4/  6 1020.2F
N MID LAKE BUOY  0650   69 71  110/  6/  8 1020.5F   1
NORTHPORT PIER   0700   65      CALM  /  2 1020.3S
SISTER BAY       0707   65        CALM       N/A
KEWAUNEE LAKESHO 0700   60        CALM     1020.3F
SHEBOYGAN LAKESH 0700   60     110/  5/  5 1019.9F
PORT WASHINGTON  0740   66     330/  1/ 11 1021.3R
ATWATER BUOY     0700   57      10/  4/  6   N/A
MILWAUKEE LAKESH 0710   64      30/  6/  7   N/A
S MID LAKE BUOY  0650   72 75   90/ 14/ 16 1019.0F   1/ 3
KENOSHA   LAKESH 0700   69     100/ 12/ 13 1019.3F
$$

TC  - TEMPERATURE IN CELSIUS
VSB - VISIBILITY IN STATUTE MILES
WCI - WIND CHILL INDEX
HX  - HEAT INDEX





USA.gov is the U.S. government's official web portal to all federal, state and local government web resources and services.